owner,sensor,date,latitude,longitude,vertical_datum,direction_of_sea_water_velocity,sea_water_speed,upward_sea_water_velocity,qcFlag 
WAVCIS,ioos:station:WAVCIS:CSI16:1,2011-10-01T00:00:00Z,29.4012,-89.0355,10.36,201.0,0.254,-99999.0,'11133222,11111222,99999999' 
WAVCIS,ioos:station:WAVCIS:CSI16:1,2011-10-01T01:00:00Z,29.4012,-89.0355,10.36,199.0,0.262,-99999.0,'11133222,11111222,99999999' 
WAVCIS,ioos:station:WAVCIS:CSI16:1,2011-10-01T02:00:00Z,29.4012,-89.0355,10.36,197.0,0.231,-99999.0,'11133222,11111222,99999999' 
WAVCIS,ioos:station:WAVCIS:CSI16:1,2011-10-01T03:00:00Z,29.4012,-89.0355,10.36,197.0,0.21,-99999.0,'11133222,11111222,99999999' 
WAVCIS,ioos:station:WAVCIS:CSI16:1,2011-10-01T04:00:00Z,29.4012,-89.0355,10.36,187.0,0.222,-99999.0,'11133222,11111222,99999999' 
WAVCIS,ioos:station:WAVCIS:CSI16:1,2011-10-01T05:00:00Z,29.4012,-89.0355,10.36,179.0,0.193,-99999.0,'11133222,11111222,99999999' 
WAVCIS,ioos:station:WAVCIS:CSI16:1,2011-10-01T06:00:00Z,29.4012,-89.0355,10.36,185.0,0.201,-99999.0,'11133222,11111222,99999999' 
WAVCIS,ioos:station:WAVCIS:CSI16:1,2011-10-01T07:00:00Z,29.4012,-89.0355,10.36,180.0,0.194,-99999.0,'11133222,11111222,99999999' 
WAVCIS,ioos:station:WAVCIS:CSI16:1,2011-10-01T08:00:00Z,29.4012,-89.0355,10.36,174.0,0.234,-99999.0,'11133222,11111222,99999999' 
WAVCIS,ioos:station:WAVCIS:CSI16:1,2011-10-01T09:00:00Z,29.4012,-89.0355,9.86,165.0,0.261,-99999.0,'11133222,11111222,99999999' 
WAVCIS,ioos:station:WAVCIS:CSI16:1,2011-10-01T10:00:00Z,29.4012,-89.0355,9.86,161.0,0.302,-99999.0,'11133222,11111222,99999999' 
WAVCIS,ioos:station:WAVCIS:CSI16:1,2011-10-01T11:00:00Z,29.4012,-89.0355,9.86,160.0,0.375,-99999.0,'11133222,11111222,99999999' 
WAVCIS,ioos:station:WAVCIS:CSI16:1,2011-10-01T12:00:00Z,29.4012,-89.0355,9.86,158.0,0.365,-99999.0,'11133222,11111222,99999999' 
WAVCIS,ioos:station:WAVCIS:CSI16:1,2011-10-01T13:00:00Z,29.4012,-89.0355,9.86,156.0,0.395,-99999.0,'11133222,11111222,99999999' 
WAVCIS,ioos:station:WAVCIS:CSI16:1,2011-10-01T14:00:00Z,29.4012,-89.0355,9.86,154.0,0.345,-99999.0,'11133222,11111222,99999999' 
WAVCIS,ioos:station:WAVCIS:CSI16:1,2011-10-01T15:00:00Z,29.4012,-89.0355,9.86,155.0,0.312,-99999.0,'11133222,11111222,99999999' 
WAVCIS,ioos:station:WAVCIS:CSI16:1,2011-10-01T16:00:00Z,29.4012,-89.0355,9.86,151.0,0.311,-99999.0,'11133222,11111222,99999999' 
WAVCIS,ioos:station:WAVCIS:CSI16:1,2011-10-01T17:00:00Z,29.4012,-89.0355,9.86,155.0,0.269,-99999.0,'11133222,11111222,99999999' 
WAVCIS,ioos:station:WAVCIS:CSI16:1,2011-10-01T18:00:00Z,29.4012,-89.0355,9.86,154.0,0.305,-99999.0,'11133222,11111222,99999999' 
WAVCIS,ioos:station:WAVCIS:CSI16:1,2011-10-01T19:00:00Z,29.4012,-89.0355,9.86,169.0,0.187,-99999.0,'11133222,11111222,99999999' 
WAVCIS,ioos:station:WAVCIS:CSI16:1,2011-10-01T20:00:00Z,29.4012,-89.0355,10.36,160.0,0.355,-99999.0,'11133222,11111222,99999999' 
WAVCIS,ioos:station:WAVCIS:CSI16:1,2011-10-01T21:00:00Z,29.4012,-89.0355,10.36,163.0,0.392,-99999.0,'11133222,11111222,99999999' 
WAVCIS,ioos:station:WAVCIS:CSI16:1,2011-10-01T22:00:00Z,29.4012,-89.0355,10.36,165.0,0.345,-99999.0,'11133222,11111222,99999999' 
WAVCIS,ioos:station:WAVCIS:CSI16:1,2011-10-01T23:00:00Z,29.4012,-89.0355,10.36,166.0,0.272,-99999.0,'11133222,11111222,99999999' 
WAVCIS,ioos:station:WAVCIS:CSI16:1,2011-10-02T00:00:00Z,29.4012,-89.0355,10.36,172.0,0.222,-99999.0,'11133222,11111222,99999999' 
WAVCIS,ioos:station:WAVCIS:CSI16:1,2011-10-02T01:00:00Z,29.4012,-89.0355,10.86,179.0,0.137,-99999.0,'11133222,11111222,99999999' 
WAVCIS,ioos:station:WAVCIS:CSI16:1,2011-10-02T02:00:00Z,29.4012,-89.0355,10.86,199.0,0.087,-99999.0,'11133222,11111222,99999999' 
WAVCIS,ioos:station:WAVCIS:CSI16:1,2011-10-02T03:00:00Z,29.4012,-89.0355,10.36,290.0,0.116,-99999.0,'11133222,11111222,99999999' 
WAVCIS,ioos:station:WAVCIS:CSI16:1,2011-10-02T04:00:00Z,29.4012,-89.0355,10.36,300.0,0.095,-99999.0,'11133222,11111222,99999999' 
WAVCIS,ioos:station:WAVCIS:CSI16:1,2011-10-02T05:00:00Z,29.4012,-89.0355,10.36,302.0,0.081,-99999.0,'11133222,11111222,99999999' 
WAVCIS,ioos:station:WAVCIS:CSI16:1,2011-10-02T06:00:00Z,29.4012,-89.0355,10.36,347.0,0.026,-99999.0,'11133222,11111222,99999999' 
WAVCIS,ioos:station:WAVCIS:CSI16:1,2011-10-02T07:00:00Z,29.4012,-89.0355,10.36,29.0,0.073,-99999.0,'11133222,11111222,99999999' 
WAVCIS,ioos:station:WAVCIS:CSI16:1,2011-10-02T08:00:00Z,29.4012,-89.0355,10.36,79.0,0.108,-99999.0,'11133222,11111222,99999999' 
WAVCIS,ioos:station:WAVCIS:CSI16:1,2011-10-02T09:00:00Z,29.4012,-89.0355,10.36,93.0,0.142,-99999.0,'11133222,11111222,99999999' 
WAVCIS,ioos:station:WAVCIS:CSI16:1,2011-10-02T10:00:00Z,29.4012,-89.0355,10.36,118.0,0.155,-99999.0,'11133222,11111222,99999999' 
WAVCIS,ioos:station:WAVCIS:CSI16:1,2011-10-02T11:00:00Z,29.4012,-89.0355,10.36,134.0,0.159,-99999.0,'11133222,11111222,99999999' 
WAVCIS,ioos:station:WAVCIS:CSI16:1,2011-10-02T12:00:00Z,29.4012,-89.0355,10.36,156.0,0.2,-99999.0,'11133222,11111222,99999999' 
WAVCIS,ioos:station:WAVCIS:CSI16:1,2011-10-02T13:00:00Z,29.4012,-89.0355,9.86,157.0,0.283,-99999.0,'11133222,11111222,99999999' 
WAVCIS,ioos:station:WAVCIS:CSI16:1,2011-10-02T14:00:00Z,29.4012,-89.0355,9.86,159.0,0.263,-99999.0,'11133222,11111222,99999999' 
WAVCIS,ioos:station:WAVCIS:CSI16:1,2011-10-02T15:00:00Z,29.4012,-89.0355,9.86,158.0,0.671,-99999.0,'11133222,11111222,99999999' 
WAVCIS,ioos:station:WAVCIS:CSI16:1,2011-10-02T16:00:00Z,29.4012,-89.0355,9.86,155.0,0.566,-99999.0,'11133222,11111222,99999999' 
WAVCIS,ioos:station:WAVCIS:CSI16:1,2011-10-02T17:00:00Z,29.4012,-89.0355,10.36,147.0,0.508,-99999.0,'11133222,11111222,99999999' 
WAVCIS,ioos:station:WAVCIS:CSI16:1,2011-10-02T18:00:00Z,29.4012,-89.0355,10.36,148.0,0.491,-99999.0,'11133222,11111222,99999999' 
WAVCIS,ioos:station:WAVCIS:CSI16:1,2011-10-02T19:00:00Z,29.4012,-89.0355,10.36,148.0,0.506,-99999.0,'11133222,11111222,99999999' 
WAVCIS,ioos:station:WAVCIS:CSI16:1,2011-10-02T20:00:00Z,29.4012,-89.0355,10.36,148.0,0.432,-99999.0,'11133222,11111222,99999999' 
WAVCIS,ioos:station:WAVCIS:CSI16:1,2011-10-02T21:00:00Z,29.4012,-89.0355,10.36,143.0,0.326,-99999.0,'11133222,11111222,99999999' 
WAVCIS,ioos:station:WAVCIS:CSI16:1,2011-10-02T22:00:00Z,29.4012,-89.0355,10.36,175.0,0.207,-99999.0,'11133222,11111222,99999999' 
WAVCIS,ioos:station:WAVCIS:CSI16:1,2011-10-02T23:00:00Z,29.4012,-89.0355,10.36,179.0,0.246,-99999.0,'11133222,11111222,99999999' 
WAVCIS,ioos:station:WAVCIS:CSI16:1,2011-10-03T00:00:00Z,29.4012,-89.0355,10.36,182.0,0.222,-99999.0,'11133222,11111222,99999999' 
WAVCIS,ioos:station:WAVCIS:CSI16:1,2011-10-03T01:00:00Z,29.4012,-89.0355,10.36,205.0,0.152,-99999.0,'11133222,11111222,99999999' 
WAVCIS,ioos:station:WAVCIS:CSI16:1,2011-10-03T02:00:00Z,29.4012,-89.0355,10.86,251.0,0.069,-99999.0,'11133222,11111222,99999999' 
WAVCIS,ioos:station:WAVCIS:CSI16:1,2011-10-03T03:00:00Z,29.4012,-89.0355,10.86,286.0,0.135,-99999.0,'11133222,11111222,99999999' 
WAVCIS,ioos:station:WAVCIS:CSI16:1,2011-10-03T04:00:00Z,29.4012,-89.0355,10.86,290.0,0.188,-99999.0,'11133222,11111222,99999999' 
WAVCIS,ioos:station:WAVCIS:CSI16:1,2011-10-03T05:00:00Z,29.4012,-89.0355,10.86,286.0,0.144,-99999.0,'11133222,11111222,99999999' 
WAVCIS,ioos:station:WAVCIS:CSI16:1,2011-10-03T06:00:00Z,29.4012,-89.0355,10.86,285.0,0.108,-99999.0,'11133222,11111222,99999999' 
WAVCIS,ioos:station:WAVCIS:CSI16:1,2011-10-03T07:00:00Z,29.4012,-89.0355,10.86,320.0,0.078,-99999.0,'11133222,11111222,99999999' 
WAVCIS,ioos:station:WAVCIS:CSI16:1,2011-10-03T08:00:00Z,29.4012,-89.0355,10.36,6.0,0.09,-99999.0,'11133222,11111222,99999999' 
WAVCIS,ioos:station:WAVCIS:CSI16:1,2011-10-03T09:00:00Z,29.4012,-89.0355,10.36,45.0,0.085,-99999.0,'11133222,11111222,99999999' 
WAVCIS,ioos:station:WAVCIS:CSI16:1,2011-10-03T10:00:00Z,29.4012,-89.0355,10.36,70.0,0.127,-99999.0,'11133222,11111222,99999999' 
WAVCIS,ioos:station:WAVCIS:CSI16:1,2011-10-03T11:00:00Z,29.4012,-89.0355,10.36,87.0,0.188,-99999.0,'11133222,11111222,99999999' 
WAVCIS,ioos:station:WAVCIS:CSI16:1,2011-10-03T12:00:00Z,29.4012,-89.0355,10.36,101.0,0.234,-99999.0,'11133222,11111222,99999999' 
WAVCIS,ioos:station:WAVCIS:CSI16:1,2011-10-03T13:00:00Z,29.4012,-89.0355,10.36,123.0,0.239,-99999.0,'11133222,11111222,99999999' 
WAVCIS,ioos:station:WAVCIS:CSI16:1,2011-10-03T14:00:00Z,29.4012,-89.0355,10.36,153.0,0.283,-99999.0,'11133222,11111222,99999999' 
WAVCIS,ioos:station:WAVCIS:CSI16:1,2011-10-03T15:00:00Z,29.4012,-89.0355,10.36,147.0,0.36,-99999.0,'11133222,11111222,99999999' 
WAVCIS,ioos:station:WAVCIS:CSI16:1,2011-10-03T16:00:00Z,29.4012,-89.0355,10.36,149.0,0.45,-99999.0,'11133222,11111222,99999999' 
WAVCIS,ioos:station:WAVCIS:CSI16:1,2011-10-03T17:00:00Z,29.4012,-89.0355,9.86,151.0,0.475,-99999.0,'11133222,11111222,99999999' 
WAVCIS,ioos:station:WAVCIS:CSI16:1,2011-10-03T18:00:00Z,29.4012,-89.0355,10.36,151.0,0.391,-99999.0,'11133222,11111222,99999999' 
WAVCIS,ioos:station:WAVCIS:CSI16:1,2011-10-03T19:00:00Z,29.4012,-89.0355,10.36,154.0,0.375,-99999.0,'11133222,11111222,99999999' 
WAVCIS,ioos:station:WAVCIS:CSI16:1,2011-10-03T20:00:00Z,29.4012,-89.0355,10.36,180.0,0.371,-99999.0,'11133222,11111222,99999999' 
WAVCIS,ioos:station:WAVCIS:CSI16:1,2011-10-03T21:00:00Z,29.4012,-89.0355,10.36,169.0,0.366,-99999.0,'11133222,11111222,99999999' 
WAVCIS,ioos:station:WAVCIS:CSI16:1,2011-10-03T22:00:00Z,29.4012,-89.0355,10.36,181.0,0.314,-99999.0,'11133222,11111222,99999999' 
WAVCIS,ioos:station:WAVCIS:CSI16:1,2011-10-03T23:00:00Z,29.4012,-89.0355,10.36,180.0,0.3,-99999.0,'11133222,11111222,99999999' 
WAVCIS,ioos:station:WAVCIS:CSI16:1,2011-10-04T00:00:00Z,29.4012,-89.0355,10.36,171.0,0.246,-99999.0,'11133222,11111222,99999999' 
WAVCIS,ioos:station:WAVCIS:CSI16:1,2011-10-04T01:00:00Z,29.4012,-89.0355,10.36,221.0,0.128,-99999.0,'11133222,11111222,99999999' 
WAVCIS,ioos:station:WAVCIS:CSI16:1,2011-10-04T02:00:00Z,29.4012,-89.0355,10.36,246.0,0.12,-99999.0,'11133222,11111222,99999999' 
WAVCIS,ioos:station:WAVCIS:CSI16:1,2011-10-04T03:00:00Z,29.4012,-89.0355,10.86,254.0,0.111,-99999.0,'11133222,11111222,99999999' 
WAVCIS,ioos:station:WAVCIS:CSI16:1,2011-10-04T04:00:00Z,29.4012,-89.0355,10.86,267.0,0.072,-99999.0,'11133222,11111222,99999999' 
WAVCIS,ioos:station:WAVCIS:CSI16:1,2011-10-04T05:00:00Z,29.4012,-89.0355,10.86,283.0,0.112,-99999.0,'11133222,11111222,99999999' 
WAVCIS,ioos:station:WAVCIS:CSI16:1,2011-10-04T06:00:00Z,29.4012,-89.0355,10.86,291.0,0.14,-99999.0,'11133222,11111222,99999999' 
WAVCIS,ioos:station:WAVCIS:CSI16:1,2011-10-04T07:00:00Z,29.4012,-89.0355,10.86,285.0,0.111,-99999.0,'11133222,11111222,99999999' 
WAVCIS,ioos:station:WAVCIS:CSI16:1,2011-10-04T08:00:00Z,29.4012,-89.0355,10.86,294.0,0.085,-99999.0,'11133222,11111222,99999999' 
WAVCIS,ioos:station:WAVCIS:CSI16:1,2011-10-04T09:00:00Z,29.4012,-89.0355,10.86,337.0,0.082,-99999.0,'11133222,11111222,99999999' 
WAVCIS,ioos:station:WAVCIS:CSI16:1,2011-10-04T10:00:00Z,29.4012,-89.0355,10.86,27.0,0.06,-99999.0,'11133222,11111222,99999999' 
WAVCIS,ioos:station:WAVCIS:CSI16:1,2011-10-04T11:00:00Z,29.4012,-89.0355,10.86,54.0,0.074,-99999.0,'11133222,11111222,99999999' 
WAVCIS,ioos:station:WAVCIS:CSI16:1,2011-10-04T12:00:00Z,29.4012,-89.0355,10.36,83.0,0.164,-99999.0,'11133222,11111222,99999999' 
WAVCIS,ioos:station:WAVCIS:CSI16:1,2011-10-04T13:00:00Z,29.4012,-89.0355,10.36,93.0,0.218,-99999.0,'11133222,11111222,99999999' 
WAVCIS,ioos:station:WAVCIS:CSI16:1,2011-10-04T14:00:00Z,29.4012,-89.0355,10.36,97.0,0.239,-99999.0,'11133222,11111222,99999999' 
WAVCIS,ioos:station:WAVCIS:CSI16:1,2011-10-04T15:00:00Z,29.4012,-89.0355,10.36,130.0,0.204,-99999.0,'11133222,11111222,99999999' 
WAVCIS,ioos:station:WAVCIS:CSI16:1,2011-10-04T16:00:00Z,29.4012,-89.0355,10.36,151.0,0.364,-99999.0,'11133222,11111222,99999999' 
WAVCIS,ioos:station:WAVCIS:CSI16:1,2011-10-04T17:00:00Z,29.4012,-89.0355,10.36,150.0,0.367,-99999.0,'11133222,11111222,99999999' 
WAVCIS,ioos:station:WAVCIS:CSI16:1,2011-10-04T18:00:00Z,29.4012,-89.0355,10.36,155.0,0.409,-99999.0,'11133222,11111222,99999999' 
WAVCIS,ioos:station:WAVCIS:CSI16:1,2011-10-04T19:00:00Z,29.4012,-89.0355,10.36,151.0,0.367,-99999.0,'11133222,11111222,99999999' 
WAVCIS,ioos:station:WAVCIS:CSI16:1,2011-10-04T20:00:00Z,29.4012,-89.0355,10.36,154.0,0.335,-99999.0,'11133222,11111222,99999999' 
WAVCIS,ioos:station:WAVCIS:CSI16:1,2011-10-04T21:00:00Z,29.4012,-89.0355,10.36,170.0,0.243,-99999.0,'11133222,11111222,99999999' 
WAVCIS,ioos:station:WAVCIS:CSI16:1,2011-10-04T22:00:00Z,29.4012,-89.0355,10.36,176.0,0.215,-99999.0,'11133222,11111222,99999999' 
WAVCIS,ioos:station:WAVCIS:CSI16:1,2011-10-04T23:00:00Z,29.4012,-89.0355,10.36,193.0,0.164,-99999.0,'11133222,11111222,99999999' 
WAVCIS,ioos:station:WAVCIS:CSI16:1,2011-10-05T00:00:00Z,29.4012,-89.0355,10.36,224.0,0.215,-99999.0,'11133222,11111222,99999999' 
WAVCIS,ioos:station:WAVCIS:CSI16:1,2011-10-05T01:00:00Z,29.4012,-89.0355,10.36,237.0,0.18,-99999.0,'11133222,11111222,99999999' 
WAVCIS,ioos:station:WAVCIS:CSI16:1,2011-10-05T02:00:00Z,29.4012,-89.0355,10.36,245.0,0.149,-99999.0,'11133222,11111222,99999999' 
WAVCIS,ioos:station:WAVCIS:CSI16:1,2011-10-05T03:00:00Z,29.4012,-89.0355,10.86,260.0,0.12,-99999.0,'11133222,11111222,99999999' 
WAVCIS,ioos:station:WAVCIS:CSI16:1,2011-10-05T04:00:00Z,29.4012,-89.0355,10.86,258.0,0.09,-99999.0,'11133222,11111222,99999999' 
WAVCIS,ioos:station:WAVCIS:CSI16:1,2011-10-05T05:00:00Z,29.4012,-89.0355,10.86,272.0,0.111,-99999.0,'11133222,11111222,99999999' 
WAVCIS,ioos:station:WAVCIS:CSI16:1,2011-10-05T06:00:00Z,29.4012,-89.0355,10.86,288.0,0.173,-99999.0,'11133222,11111222,99999999' 
WAVCIS,ioos:station:WAVCIS:CSI16:1,2011-10-05T07:00:00Z,29.4012,-89.0355,10.86,288.0,0.14,-99999.0,'11133222,11111222,99999999' 
WAVCIS,ioos:station:WAVCIS:CSI16:1,2011-10-05T08:00:00Z,29.4012,-89.0355,10.86,283.0,0.114,-99999.0,'11133222,11111222,99999999' 
WAVCIS,ioos:station:WAVCIS:CSI16:1,2011-10-05T09:00:00Z,29.4012,-89.0355,10.86,307.0,0.09,-99999.0,'11133222,11111222,99999999' 
WAVCIS,ioos:station:WAVCIS:CSI16:1,2011-10-05T10:00:00Z,29.4012,-89.0355,10.86,340.0,0.102,-99999.0,'11133222,11111222,99999999' 
WAVCIS,ioos:station:WAVCIS:CSI16:1,2011-10-05T11:00:00Z,29.4012,-89.0355,10.86,357.0,0.088,-99999.0,'11133222,11111222,99999999' 
WAVCIS,ioos:station:WAVCIS:CSI16:1,2011-10-05T12:00:00Z,29.4012,-89.0355,10.86,31.0,0.079,-99999.0,'11133222,11111222,99999999' 
WAVCIS,ioos:station:WAVCIS:CSI16:1,2011-10-05T13:00:00Z,29.4012,-89.0355,10.36,75.0,0.126,-99999.0,'11133222,11111222,99999999' 
WAVCIS,ioos:station:WAVCIS:CSI16:1,2011-10-05T14:00:00Z,29.4012,-89.0355,10.36,88.0,0.187,-99999.0,'11133222,11111222,99999999' 
WAVCIS,ioos:station:WAVCIS:CSI16:1,2011-10-05T15:00:00Z,29.4012,-89.0355,10.36,97.0,0.206,-99999.0,'11133222,11111222,99999999' 
WAVCIS,ioos:station:WAVCIS:CSI16:1,2011-10-05T16:00:00Z,29.4012,-89.0355,10.36,113.0,0.191,-99999.0,'11133222,11111222,99999999' 
WAVCIS,ioos:station:WAVCIS:CSI16:1,2011-10-05T17:00:00Z,29.4012,-89.0355,10.36,151.0,0.336,-99999.0,'11133222,11111222,99999999' 
WAVCIS,ioos:station:WAVCIS:CSI16:1,2011-10-05T18:00:00Z,29.4012,-89.0355,10.36,154.0,0.341,-99999.0,'11133222,11111222,99999999' 
WAVCIS,ioos:station:WAVCIS:CSI16:1,2011-10-05T19:00:00Z,29.4012,-89.0355,10.36,154.0,0.364,-99999.0,'11133222,11111222,99999999' 
WAVCIS,ioos:station:WAVCIS:CSI16:1,2011-10-05T20:00:00Z,29.4012,-89.0355,10.36,151.0,0.362,-99999.0,'11133222,11111222,99999999' 
WAVCIS,ioos:station:WAVCIS:CSI16:1,2011-10-05T21:00:00Z,29.4012,-89.0355,10.36,154.0,0.28,-99999.0,'11133222,11111222,99999999' 
WAVCIS,ioos:station:WAVCIS:CSI16:1,2011-10-05T22:00:00Z,29.4012,-89.0355,10.36,173.0,0.25,-99999.0,'11133222,11111222,99999999' 
WAVCIS,ioos:station:WAVCIS:CSI16:1,2011-10-05T23:00:00Z,29.4012,-89.0355,10.36,188.0,0.156,-99999.0,'11133222,11111222,99999999' 
WAVCIS,ioos:station:WAVCIS:CSI16:1,2011-10-06T00:00:00Z,29.4012,-89.0355,10.36,189.0,0.174,-99999.0,'11133222,11111222,99999999' 
WAVCIS,ioos:station:WAVCIS:CSI16:1,2011-10-06T01:00:00Z,29.4012,-89.0355,10.36,205.0,0.147,-99999.0,'11133222,11111222,99999999' 
WAVCIS,ioos:station:WAVCIS:CSI16:1,2011-10-06T02:00:00Z,29.4012,-89.0355,10.36,234.0,0.192,-99999.0,'11133222,11111222,99999999' 
WAVCIS,ioos:station:WAVCIS:CSI16:1,2011-10-06T03:00:00Z,29.4012,-89.0355,10.36,250.0,0.172,-99999.0,'11133222,11111222,99999999' 
WAVCIS,ioos:station:WAVCIS:CSI16:1,2011-10-06T04:00:00Z,29.4012,-89.0355,10.36,240.0,0.117,-99999.0,'11133222,11111222,99999999' 
WAVCIS,ioos:station:WAVCIS:CSI16:1,2011-10-06T05:00:00Z,29.4012,-89.0355,10.36,235.0,0.055,-99999.0,'11133222,11111222,99999999' 
WAVCIS,ioos:station:WAVCIS:CSI16:1,2011-10-06T06:00:00Z,29.4012,-89.0355,10.36,268.0,0.031,-99999.0,'11133222,11111222,99999999' 
WAVCIS,ioos:station:WAVCIS:CSI16:1,2011-10-06T07:00:00Z,29.4012,-89.0355,10.36,264.0,0.075,-99999.0,'11133222,11111222,99999999' 
WAVCIS,ioos:station:WAVCIS:CSI16:1,2011-10-06T08:00:00Z,29.4012,-89.0355,10.36,284.0,0.079,-99999.0,'11133222,11111222,99999999' 
WAVCIS,ioos:station:WAVCIS:CSI16:1,2011-10-06T09:00:00Z,29.4012,-89.0355,10.36,289.0,0.064,-99999.0,'11133222,11111222,99999999' 
WAVCIS,ioos:station:WAVCIS:CSI16:1,2011-10-06T10:00:00Z,29.4012,-89.0355,10.36,301.0,0.05,-99999.0,'11133222,11111222,99999999' 
WAVCIS,ioos:station:WAVCIS:CSI16:1,2011-10-06T11:00:00Z,29.4012,-89.0355,10.36,304.0,0.068,-99999.0,'11133222,11111222,99999999' 
WAVCIS,ioos:station:WAVCIS:CSI16:1,2011-10-06T12:00:00Z,29.4012,-89.0355,10.36,343.0,0.083,-99999.0,'11133222,11111222,99999999' 
WAVCIS,ioos:station:WAVCIS:CSI16:1,2011-10-06T13:00:00Z,29.4012,-89.0355,10.36,321.0,0.178,-99999.0,'11133222,11111222,99999999' 
WAVCIS,ioos:station:WAVCIS:CSI16:1,2011-10-06T14:00:00Z,29.4012,-89.0355,10.36,344.0,0.134,-99999.0,'11133222,11111222,99999999' 
WAVCIS,ioos:station:WAVCIS:CSI16:1,2011-10-06T15:00:00Z,29.4012,-89.0355,10.36,21.0,0.122,-99999.0,'11133222,11111222,99999999' 
WAVCIS,ioos:station:WAVCIS:CSI16:1,2011-10-06T16:00:00Z,29.4012,-89.0355,10.36,35.0,0.139,-99999.0,'11133222,11111222,99999999' 
WAVCIS,ioos:station:WAVCIS:CSI16:1,2011-10-06T17:00:00Z,29.4012,-89.0355,10.36,61.0,0.172,-99999.0,'11133222,11111222,99999999' 
WAVCIS,ioos:station:WAVCIS:CSI16:1,2011-10-06T18:00:00Z,29.4012,-89.0355,10.36,83.0,0.218,-99999.0,'11133222,11111222,99999999' 
WAVCIS,ioos:station:WAVCIS:CSI16:1,2011-10-06T19:00:00Z,29.4012,-89.0355,10.36,102.0,0.179,-99999.0,'11133222,11111222,99999999' 
WAVCIS,ioos:station:WAVCIS:CSI16:1,2011-10-06T20:00:00Z,29.4012,-89.0355,10.36,142.0,0.139,-99999.0,'11133222,11111222,99999999' 
WAVCIS,ioos:station:WAVCIS:CSI16:1,2011-10-06T21:00:00Z,29.4012,-89.0355,9.86,158.0,0.191,-99999.0,'11133222,11111222,99999999' 
WAVCIS,ioos:station:WAVCIS:CSI16:1,2011-10-06T22:00:00Z,29.4012,-89.0355,10.36,156.0,0.163,-99999.0,'11133222,11111222,99999999' 
WAVCIS,ioos:station:WAVCIS:CSI16:1,2011-10-06T23:00:00Z,29.4012,-89.0355,10.36,170.0,0.181,-99999.0,'11133222,11111222,99999999' 
WAVCIS,ioos:station:WAVCIS:CSI16:1,2011-10-07T00:00:00Z,29.4012,-89.0355,10.36,168.0,0.167,-99999.0,'11133222,11111222,99999999' 
WAVCIS,ioos:station:WAVCIS:CSI16:1,2011-10-07T01:00:00Z,29.4012,-89.0355,10.36,172.0,0.139,-99999.0,'11133222,11111222,99999999' 
WAVCIS,ioos:station:WAVCIS:CSI16:1,2011-10-07T02:00:00Z,29.4012,-89.0355,10.36,194.0,0.127,-99999.0,'11133222,11111222,99999999' 
WAVCIS,ioos:station:WAVCIS:CSI16:1,2011-10-07T03:00:00Z,29.4012,-89.0355,10.36,207.0,0.119,-99999.0,'11133222,11111222,99999999' 
WAVCIS,ioos:station:WAVCIS:CSI16:1,2011-10-07T04:00:00Z,29.4012,-89.0355,10.36,213.0,0.102,-99999.0,'11133222,11111222,99999999' 
WAVCIS,ioos:station:WAVCIS:CSI16:1,2011-10-07T05:00:00Z,29.4012,-89.0355,10.36,216.0,0.137,-99999.0,'11133222,11111222,99999999' 
WAVCIS,ioos:station:WAVCIS:CSI16:1,2011-10-07T06:00:00Z,29.4012,-89.0355,10.36,228.0,0.072,-99999.0,'11133222,11111222,99999999' 
WAVCIS,ioos:station:WAVCIS:CSI16:1,2011-10-07T07:00:00Z,29.4012,-89.0355,10.36,296.0,0.218,-99999.0,'11133222,11111222,99999999' 
WAVCIS,ioos:station:WAVCIS:CSI16:1,2011-10-07T08:00:00Z,29.4012,-89.0355,10.36,310.0,0.192,-99999.0,'11133222,11111222,99999999' 
WAVCIS,ioos:station:WAVCIS:CSI16:1,2011-10-07T09:00:00Z,29.4012,-89.0355,10.36,310.0,0.147,-99999.0,'11133222,11111222,99999999' 
WAVCIS,ioos:station:WAVCIS:CSI16:1,2011-10-07T10:00:00Z,29.4012,-89.0355,10.36,308.0,0.147,-99999.0,'11133222,11111222,99999999' 
WAVCIS,ioos:station:WAVCIS:CSI16:1,2011-10-07T11:00:00Z,29.4012,-89.0355,10.36,309.0,0.144,-99999.0,'11133222,11111222,99999999' 
WAVCIS,ioos:station:WAVCIS:CSI16:1,2011-10-07T12:00:00Z,29.4012,-89.0355,10.36,313.0,0.045,-99999.0,'11133222,11111222,99999999' 
WAVCIS,ioos:station:WAVCIS:CSI16:1,2011-10-07T13:00:00Z,29.4012,-89.0355,10.36,320.0,0.084,-99999.0,'11133222,11111222,99999999' 
WAVCIS,ioos:station:WAVCIS:CSI16:1,2011-10-07T14:00:00Z,29.4012,-89.0355,10.36,319.0,0.082,-99999.0,'11133222,11111222,99999999' 
WAVCIS,ioos:station:WAVCIS:CSI16:1,2011-10-07T15:00:00Z,29.4012,-89.0355,10.36,19.0,0.081,-99999.0,'11133222,11111222,99999999' 
WAVCIS,ioos:station:WAVCIS:CSI16:1,2011-10-07T16:00:00Z,29.4012,-89.0355,10.36,348.0,0.058,-99999.0,'11133222,11111222,99999999' 
WAVCIS,ioos:station:WAVCIS:CSI16:1,2011-10-07T17:00:00Z,29.4012,-89.0355,10.36,354.0,0.055,-99999.0,'11133222,11111222,99999999' 
WAVCIS,ioos:station:WAVCIS:CSI16:1,2011-10-07T18:00:00Z,29.4012,-89.0355,10.36,45.0,0.052,-99999.0,'11133222,11111222,99999999' 
WAVCIS,ioos:station:WAVCIS:CSI16:1,2011-10-07T19:00:00Z,29.4012,-89.0355,10.36,121.0,0.06,-99999.0,'11133222,11111222,99999999' 
WAVCIS,ioos:station:WAVCIS:CSI16:1,2011-10-07T20:00:00Z,29.4012,-89.0355,10.36,154.0,0.113,-99999.0,'11133222,11111222,99999999' 
WAVCIS,ioos:station:WAVCIS:CSI16:1,2011-10-07T21:00:00Z,29.4012,-89.0355,9.86,148.0,0.22,-99999.0,'11133222,11111222,99999999' 
WAVCIS,ioos:station:WAVCIS:CSI16:1,2011-10-07T22:00:00Z,29.4012,-89.0355,9.86,154.0,0.199,-99999.0,'11133222,11111222,99999999' 
WAVCIS,ioos:station:WAVCIS:CSI16:1,2011-10-07T23:00:00Z,29.4012,-89.0355,10.36,165.0,0.195,-99999.0,'11133222,11111222,99999999' 
WAVCIS,ioos:station:WAVCIS:CSI16:1,2011-10-08T00:00:00Z,29.4012,-89.0355,10.36,167.0,0.181,-99999.0,'11133222,11111222,99999999' 
WAVCIS,ioos:station:WAVCIS:CSI16:1,2011-10-08T01:00:00Z,29.4012,-89.0355,10.36,173.0,0.189,-99999.0,'11133222,11111222,99999999' 
WAVCIS,ioos:station:WAVCIS:CSI16:1,2011-10-08T02:00:00Z,29.4012,-89.0355,10.36,176.0,0.205,-99999.0,'11133222,11111222,99999999' 
WAVCIS,ioos:station:WAVCIS:CSI16:1,2011-10-08T03:00:00Z,29.4012,-89.0355,10.36,170.0,0.207,-99999.0,'11133222,11111222,99999999' 
WAVCIS,ioos:station:WAVCIS:CSI16:1,2011-10-08T04:00:00Z,29.4012,-89.0355,10.36,172.0,0.164,-99999.0,'11133222,11111222,99999999' 
WAVCIS,ioos:station:WAVCIS:CSI16:1,2011-10-08T05:00:00Z,29.4012,-89.0355,10.36,172.0,0.128,-99999.0,'11133222,11111222,99999999' 
WAVCIS,ioos:station:WAVCIS:CSI16:1,2011-10-08T06:00:00Z,29.4012,-89.0355,10.36,167.0,0.116,-99999.0,'11133222,11111222,99999999' 
WAVCIS,ioos:station:WAVCIS:CSI16:1,2011-10-08T07:00:00Z,29.4012,-89.0355,10.36,176.0,0.133,-99999.0,'11133222,11111222,99999999' 
WAVCIS,ioos:station:WAVCIS:CSI16:1,2011-10-08T08:00:00Z,29.4012,-89.0355,10.36,173.0,0.126,-99999.0,'11133222,11111222,99999999' 
WAVCIS,ioos:station:WAVCIS:CSI16:1,2011-10-08T09:00:00Z,29.4012,-89.0355,10.36,173.0,0.11,-99999.0,'11133222,11111222,99999999' 
WAVCIS,ioos:station:WAVCIS:CSI16:1,2011-10-08T10:00:00Z,29.4012,-89.0355,10.36,179.0,0.095,-99999.0,'11133222,11111222,99999999' 
WAVCIS,ioos:station:WAVCIS:CSI16:1,2011-10-08T11:00:00Z,29.4012,-89.0355,10.36,171.0,0.119,-99999.0,'11133222,11111222,99999999' 
WAVCIS,ioos:station:WAVCIS:CSI16:1,2011-10-08T12:00:00Z,29.4012,-89.0355,10.36,172.0,0.159,-99999.0,'11133222,11111222,99999999' 
WAVCIS,ioos:station:WAVCIS:CSI16:1,2011-10-08T13:00:00Z,29.4012,-89.0355,10.36,168.0,0.17,-99999.0,'11133222,11111222,99999999' 
WAVCIS,ioos:station:WAVCIS:CSI16:1,2011-10-08T14:00:00Z,29.4012,-89.0355,9.86,179.0,0.119,-99999.0,'11133222,11111222,99999999' 
WAVCIS,ioos:station:WAVCIS:CSI16:1,2011-10-08T15:00:00Z,29.4012,-89.0355,10.36,165.0,0.165,-99999.0,'11133222,11111222,99999999' 